Miscellaneous Local Product
Issued by NWS Hastings, NE

Home | Current Version | Previous Version | Graphics & Text | Print | Product List | Glossary On
Versions: 1 2 3 4 5 6 7 8 9 10 11 12 13 14 15 16 17 18 19 20 21 22 23 24 25 26 27 28 29 30 31 32 33 34 35 36 37 38 39 40 41 42 43 44 45 46 47 48 49 50
200
AXUS43 KGID 291402
MISGRI

GID CWA HOURLY WEATHER ROUNDUP
NATIONAL WEATHER SERVICE HASTINGS NE
900 AM CDT MON AUG 29 2016

NOTE: "FAIR" INDICATES FEW OR NO CLOUDS BELOW 12,000 FEET WITH NO
SIGNIFICANT WEATHER AND/OR OBSTRUCTIONS TO VISIBILITY.

...SOUTH CENTRAL NEBRASKA...

CITY           SKY/WX    TMP DP  RH WIND       PRES   REMARKS
GRAND ISLAND   PTSUNNY   68  64  87 SE9       30.20S
HASTINGS       CLOUDY    67  64  90 E6        30.20F
KEARNEY        PTSUNNY   70  64  83 S6        30.19R
ORD            CLOUDY    68  61  78 CALM      30.18R
YORK           CLOUDY    68  66  94 CALM      30.20R
AURORA         CLOUDY    67  67 100 E3        30.20S
LEXINGTON      CLOUDY    69  65  87 S7        30.19R
HOLDREGE       CLOUDY    69  64  85 CALM      30.20R
HEBRON         CLOUDY    69  67  92 E5        30.20R

...NEBRASKA PANHANDLE...

CITY           SKY/WX    TMP DP  RH WIND       PRES   REMARKS
CHADRON        SUNNY     62  53  72 CALM      30.22R
ALLIANCE       SUNNY     57  53  86 CALM      30.22R
SCOTTSBLUFF    SUNNY     63  52  67 N3        30.23R
SIDNEY         SUNNY     64  51  62 W12       30.25S

...WESTERN AND NORTH CENTRAL NEBRASKA...

CITY           SKY/WX    TMP DP  RH WIND       PRES   REMARKS
VALENTINE      SUNNY     70  61  73 SW9       30.18R
AINSWORTH      SUNNY     70  65  83 SW9       30.17S
ONEILL         CLOUDY    68  64  88 S6        30.17S
BROKEN BOW     CLOUDY    67  65  93 E3        30.19R
IMPERIAL       MOSUNNY   64  62  93 SE9       30.22S
NORTH PLATTE   CLOUDY    66  61  84 W5        30.19S
MCCOOK         CLOUDY    68  66  93 SW10      30.19S

...EASTERN NEBRASKA...

CITY           SKY/WX    TMP DP  RH WIND       PRES   REMARKS
NORFOLK        PTSUNNY   69  65  86 S5        30.18R
SO SIOUX CITY  PTSUNNY   72  67  84 SE7       30.18R
TEKAMAH        CLOUDY    70  67  90 SE6       30.18R
COLUMBUS       CLOUDY    70  59  68 CALM      30.20R
ALBION         CLOUDY    68  64  86 S3        30.19S
OMAHA EPPLEY   CLOUDY    73  67  81 SE8       30.19R
OFFUTT AFB     PTSUNNY   74  70  85 E6        30.19R
MILLARD        CLOUDY    73  69  88 SE5       30.19R
LINCOLN        MOSUNNY   75  69  81 SE3       30.19R
NEBRASKA CITY  CLOUDY    71  71 100 SE3       30.19S
BEATRICE       MOSUNNY   72  70  93 E6        30.19S
FALLS CITY     PTSUNNY   73  70  90 E3        30.17S

...NORTHERN KANSAS...

CITY           SKY/WX    TMP DP  RH WIND       PRES   REMARKS
GOODLAND       PTSUNNY   61  59  93 E8        30.23R
HILL CITY      CLOUDY    68  67  96 CALM      30.20R FOG
NORTON         SUNNY     70  63  78 S10       30.19R
SMITH CENTER   SUNNY     66  63  88 CALM      30.19R
BELOIT         SUNNY     72  64  78 E5        30.17R
HAYS           CLOUDY    70  59  68 CALM      30.19R
RUSSELL        CLOUDY    70  68  93 E7        30.17R
CONCORDIA      MOSUNNY   71  67  87 E5        30.18R
SALINA         MOSUNNY   76  71  85 CALM      30.17R
TOPEKA         SUNNY     76  72  87 CALM      30.17R



USA.gov is the U.S. government's official web portal to all federal, state and local government web resources and services.